Location: Haieshausen
(51.8387°N, 9.9720°E)
Time: 04:14:46
(UTC+00:00)

ARIANE 5 R/B - Pass Details

Date: 14 July 2020
Orbit: 749 x 794 km, 98.6° (Epoch: 10 August)

Event Time Altitude Azimuth Distance (km) Brightness Sun altitude
Rises 01:10:07 0° 24° (NNE) 3,236 7.8 -13.1°
Reaches altitude 10° 01:12:53 10° 39° (NE) 2,312 6.3 -12.9°
Maximum altitude 01:16:55 23° 92° (E) 1,590 4.4 -12.6°
Drops below altitude 10° 01:20:57 10° 144° (SE) 2,322 4.7 -12.3°
Enters shadow 01:23:10 - 156° (SSE) 3,053 5.2 -12.2°
